Home   Weather   Summerside   Past weeks

Flag for Canada Past Weather in Summerside, Prince Edward Island, Canada — Yesterday and Last 2 Weeks

Now
29 °F

Chilly.


Feels Like: 23 °F
Forecast: N/A
Wind: 6 mph from North

Location: Summerside Airport

Current Time: Jan 20, 2017 at 6:22:58 pm

Latest Report: Jan 20, 2017 at 6:00 pm


Visibility: N/A

Pressure: 29.95 "Hg

Humidity: 86%

Dew Point: 26 °F

Location of SummersideLocation

Past Weather in Summerside — Graph

°F

Summerside Temperature Yesterday

Maximum temperature yesterday: 29 °F (at 10:00 pm)
Minimum temperature yesterday: 16 °F (at 12:00 am)
Average temperature yesterday: 26 °F

High & Low Weather Summary for the Past Weeks

 TemperatureHumidityPressure
High43 °F (Jan 12, 3:00 pm)100% (Jan 6, 7:00 am)30.73 "Hg (Jan 6, 7:00 am)
Low0 °F (Jan 9, 7:00 pm)46% (Jan 13, 7:00 pm)29.63 "Hg (Jan 5, 5:00 pm)
Average22 °F79%30.14 "Hg
* Reported Jan 5 5:00 pm — Jan 20 5:00 pm, Summerside, Weather by CustomWeather, © 2017

Note: Actual official high and low records may vary slightly from our data, if they occured in-between our weather recording intervals... More about our weather records

Advertising

Summerside Weather History for the Previous 24 Hours

Scroll right to see more
 ConditionsComfort  
Time TempWeatherWind HumidityBarometerVisibility
5:00 pm
Fri, Jan 20
28 °FChilly.8 mph91%29.95 "HgN/A
4:00 pm29 °FChilly.9 mph81%29.95 "HgN/A
3:00 pm29 °FChilly.10 mph81%29.94 "HgN/A
1:00 pm29 °FChilly.12 mph83%29.94 "HgN/A
12:00 pm29 °FChilly.9 mph87%29.95 "HgN/A
10:00 am29 °FChilly.10 mph85%29.94 "HgN/A
9:00 am29 °FChilly.12 mph91%29.92 "HgN/A
8:00 am26 °FChilly.3 mph96%29.91 "HgN/A
7:00 am25 °FCold.6 mph96%29.90 "HgN/A
5:00 am27 °FChilly.8 mph91%29.89 "HgN/A
4:00 am27 °FChilly.7 mph95%29.89 "HgN/A
3:00 am28 °FChilly.6 mph95%29.89 "HgN/A
2:00 am29 °FChilly.6 mph98%29.88 "HgN/A
1:00 am29 °FChilly.5 mph100%29.88 "HgN/A
12:00 am29 °FChilly.7 mph98%29.87 "HgN/A
11:00 pm
Thu, Jan 19
29 °FChilly.9 mph97%29.88 "HgN/A
10:00 pm29 °FChilly.9 mph96%29.88 "HgN/A
9:00 pm29 °FChilly.12 mph98%29.88 "HgN/A
8:00 pm29 °FChilly.13 mph98%29.88 "HgN/A
7:00 pm28 °FChilly.12 mph98%29.89 "HgN/A
6:00 pm28 °FChilly.10 mph100%29.90 "HgN/A
Weather by CustomWeather, © 2017

See weather overviewHow to use our weather pages